This is the latest recevied weather packets stored in our database for station/object ZL3GL-4. If no packets are shown the sender has not sent any weather packets the latest 10 day(s).
| Time | Temp. | Humidity | Pressure | Rain* | Wind** | Luminosity | Snow |
|---|---|---|---|---|---|---|---|
| 1777939209 | 10° C | 97% | 1028.4 hPa | 0 mm | 0.45 m/s, 28° | - | - |
| 1777938364 | 10° C | 98% | 1028.7 hPa | 0 mm | 0.45 m/s, 121° | - | - |
| 1777937520 | 10° C | 99% | 1028.7 hPa | 0 mm | 1.34 m/s, 354° | - | - |
| 1777936676 | 10° C | 100% | 1029 hPa | 0 mm | 1.79 m/s, 271° | - | - |
| 1777935833 | 10° C | 100% | 1029 hPa | 0 mm | 2.24 m/s, 287° | - | - |
| 1777934988 | 9.44° C | 100% | 1029 hPa | 0 mm | 1.79 m/s, 276° | - | - |
| 1777934144 | 9.44° C | 100% | 1029.1 hPa | 0 mm | 1.34 m/s, 314° | - | - |
| 1777933300 | 9.44° C | 100% | 1029.2 hPa | 0 mm | 1.79 m/s, 311° | - | - |
| 1777932455 | 9.44° C | 100% | 1029.4 hPa | 0 mm | 1.34 m/s, 311° | - | - |
| 1777931615 | 8.89° C | 100% | 1029.5 hPa | 0 mm | 1.34 m/s, 309° | - | - |
| 1777930769 | 8.89° C | 100% | 1029.6 hPa | 0 mm | 0.89 m/s, 329° | - | - |
| 1777929924 | 8.33° C | 100% | 1029.7 hPa | 0 mm | 1.34 m/s, 354° | - | - |
| 1777929081 | 8.89° C | 100% | 1029.6 hPa | 0 mm | 1.79 m/s, 353° | - | - |
| 1777928236 | 8.89° C | 100% | 1029.5 hPa | 0 mm | 0.89 m/s, 305° | - | - |
| 1777926550 | 8.33° C | 100% | 1029.6 hPa | 0 mm | 0.45 m/s, 271° | - | - |
| 1777925707 | 8.33° C | 100% | 1029.6 hPa | 0 mm | 0.45 m/s, 273° | - | - |
| 1777924863 | 8.33° C | 100% | 1029.6 hPa | 0 mm | 0.45 m/s, 325° | - | - |
| 1777924020 | 8.33° C | 100% | 1029.6 hPa | 0 mm | 0 m/s | - | - |
| 1777923176 | 8.33° C | 100% | 1029.5 hPa | 0 mm | 0.45 m/s, 335° | - | - |
| 1777922337 | 8.33° C | 100% | 1029.6 hPa | 0 mm | 0 m/s | - | - |
| 1777921490 | 8.33° C | 100% | 1029.5 hPa | 0 mm | 0 m/s | - | - |
| 1777920646 | 8.33° C | 100% | 1029.5 hPa | 0 mm | 0 m/s | - | - |
| 1777919802 | 8.33° C | 100% | 1029.6 hPa | 0 mm | 0 m/s | - | - |
| 1777918958 | 8.33° C | 100% | 1029.6 hPa | 0 mm | 0 m/s | - | - |
| 1777918115 | 8.33° C | 100% | 1029.6 hPa | 0 mm | 0 m/s | - | - |
* Rain latest hour (hover to see other rain measurements)
** Current wind speed in m/s (hover to see current wind gust speed)